Weather History for Thomson, GA

Change the Weather History Date:

Monday, November 4, 2013

  Actual Average (KDBN) Record (KDBN)
Temperature  
Mean Temperature 48 °F -  
Max Temperature 63 °F 74 °F 89 °F (1974)
Min Temperature 32 °F 46 °F 29 °F (1954)
Degree Days  
Heating Degree Days 18    
Moisture  
Dew Point 38 °F    
Average Humidity 75    
Maximum Humidity 100    
Minimum Humidity 36    
Precipitation  
Precipitation 0.00 in - - ()
Sea Level Pressure  
Sea Level Pressure 30.45 in    
Wind  
Wind Speed 3 mph (ENE)    
Max Wind Speed 15 mph    
Max Gust Speed 20 mph    
Visibility 9 miles    
Events      
Averages and records for this station are not official NWS values.
T = Trace of Precipitation, MM = Missing Value Source: NWS Daily Summary

Daily Weather History Graph

Daily Weather History Graph

Search for Another Location

Airport:

Trip Planner

Search our weather history database for the weather conditions in past years. The results will help you decide how hot, cold, wet, or windy it might be!

Date:

Astronomy

Nov. 04, 2013 Rise Set
Actual Time 6:51 AM EST 5:35 PM EST
Civil Twilight 6:25 AM EST 6:00 PM EST
Nautical Twilight 5:56 AM EST 6:30 PM EST
Astronomical Twilight 5:27 AM EST 6:59 PM EST
Moon 7:58 AM EST (11/4) 6:42 PM EST (11/4)
Length of Visible Light 11h 35m
Length of Day
10h 43m
New Moon, 2% of the Moon is Illuminated
Nov 4
New Moon
Nov 10
First Quarter
Nov 17
Full
Nov 25
Last Quarter
Dec 2
New

Hourly Weather History & Observations

Time (EST) Temp. Windchill Dew Point Humidity Pressure Visibility Wind Dir Wind Speed Gust Speed Precip Events Conditions
12:15 AM 38.7 °F - 38.7 °F 100% 30.37 in 7.0 mi Calm Calm - N/A   Clear
12:35 AM 38.3 °F - 38.3 °F 100% 30.37 in 7.0 mi Calm Calm - N/A   Clear
12:55 AM 37.8 °F - 37.8 °F 100% 30.38 in 7.0 mi Calm Calm - N/A   Clear
1:15 AM 37.6 °F - 37.6 °F 100% 30.38 in 5.0 mi Calm Calm - N/A   Clear
1:35 AM 37.4 °F - 37.4 °F 100% 30.39 in 5.0 mi Calm Calm - N/A   Clear
1:55 AM 37.0 °F - 37.0 °F 100% 30.39 in 5.0 mi Calm Calm - N/A   Clear
2:15 AM 36.0 °F - 36.0 °F 100% 30.39 in 5.0 mi Calm Calm - N/A   Clear
2:35 AM 36.5 °F - 36.5 °F 100% 30.39 in 5.0 mi Calm Calm - N/A   Clear
2:55 AM 35.8 °F - 35.8 °F 100% 30.39 in 5.0 mi Calm Calm - N/A   Clear
3:15 AM 35.6 °F - 35.6 °F 100% 30.39 in 7.0 mi Calm Calm - N/A   Clear
3:35 AM 35.1 °F - 35.1 °F 100% 30.39 in 5.0 mi Calm Calm - N/A   Clear
3:55 AM 34.9 °F - 34.9 °F 100% 30.40 in 5.0 mi Calm Calm - N/A   Clear
4:15 AM 35.1 °F - 35.1 °F 100% 30.40 in 5.0 mi Calm Calm - N/A   Clear
4:35 AM 34.7 °F - 34.7 °F 100% 30.41 in 7.0 mi Calm Calm - N/A   Clear
4:55 AM 33.3 °F - 33.3 °F 100% 30.41 in 4.0 mi Calm Calm - N/A   Clear
5:15 AM 33.4 °F - 33.4 °F 100% 30.42 in 0.5 mi Calm Calm - N/A   Unknown
5:35 AM 32.9 °F - 32.9 °F 100% 30.43 in 2.5 mi Calm Calm - N/A   Clear
5:55 AM 33.6 °F - 33.6 °F 100% 30.44 in 5.0 mi Calm Calm - N/A   Clear
6:15 AM 32.7 °F - 32.7 °F 100% 30.45 in 7.0 mi Calm Calm - N/A   Clear
6:35 AM 33.3 °F - 33.3 °F 100% 30.45 in 7.0 mi Calm Calm - N/A   Clear
6:55 AM 33.1 °F 27.7 °F 33.1 °F 100% 30.44 in 7.0 mi NE 5.8 mph - N/A   Clear
7:15 AM 39.9 °F 35.8 °F 39.9 °F 100% 30.44 in 10.0 mi ENE 5.8 mph - N/A   Clear
7:35 AM 42.4 °F 38.1 °F 41.4 °F 96% 30.44 in 10.0 mi ENE 6.9 mph - N/A   Clear
7:55 AM 43.9 °F 40.5 °F 41.9 °F 93% 30.46 in 10.0 mi ENE 5.8 mph - N/A   Clear
8:15 AM 45.7 °F 42.7 °F 41.9 °F 87% 30.48 in 10.0 mi East 5.8 mph - N/A   Clear
8:35 AM 46.9 °F - 42.1 °F 83% 30.49 in 10.0 mi ENE 5.8 mph - N/A   Clear
8:55 AM 49.1 °F - 42.4 °F 78% 30.50 in 10.0 mi ENE 8.1 mph - N/A   Clear
9:15 AM 50.9 °F - 42.3 °F 72% 30.49 in 10.0 mi East 9.2 mph - N/A   Clear
9:35 AM 52.3 °F - 41.9 °F 68% 30.50 in 10.0 mi ENE 8.1 mph 16.1 mph N/A   Clear
9:55 AM 53.6 °F - 39.7 °F 59% 30.51 in 10.0 mi ENE 11.5 mph - N/A   Clear
10:15 AM 54.7 °F - 38.8 °F 55% 30.51 in 10.0 mi NE 9.2 mph 18.4 mph N/A   Clear
10:35 AM 55.8 °F - 37.6 °F 51% 30.50 in 10.0 mi East 13.8 mph - N/A   Clear
10:55 AM 56.7 °F - 37.9 °F 50% 30.50 in 10.0 mi East 9.2 mph 17.3 mph N/A   Clear
11:15 AM 58.6 °F - 38.5 °F 47% 30.50 in 10.0 mi East 10.4 mph - N/A   Clear
11:35 AM 59.5 °F - 37.6 °F 44% 30.49 in 10.0 mi East 12.7 mph 18.4 mph N/A   Clear
11:55 AM 59.9 °F - 37.4 °F 43% 30.49 in 10.0 mi East 12.7 mph 17.3 mph N/A   Clear
12:15 PM 60.8 °F - 38.3 °F 43% 30.48 in 10.0 mi ENE 15.0 mph 19.6 mph N/A   Clear
12:35 PM 60.4 °F - 37.8 °F 43% 30.47 in 10.0 mi East 10.4 mph 18.4 mph N/A   Clear
12:55 PM 61.7 °F - 38.3 °F 42% 30.46 in 10.0 mi ENE 11.5 mph 16.1 mph N/A   Clear
1:15 PM 62.2 °F - 38.8 °F 42% 30.46 in 10.0 mi NE 10.4 mph - N/A   Clear
1:35 PM 62.1 °F - 37.6 °F 40% 30.45 in 10.0 mi ESE 6.9 mph 10.4 mph N/A   Clear
1:55 PM 62.1 °F - 35.8 °F 38% 30.45 in 10.0 mi East 8.1 mph - N/A   Clear
2:15 PM 62.2 °F - 35.4 °F 37% 30.45 in 10.0 mi ENE 9.2 mph - N/A   Clear
2:35 PM 63.0 °F - 35.4 °F 36% 30.45 in 10.0 mi East 8.1 mph 16.1 mph N/A   Clear
2:55 PM 62.6 °F - 34.9 °F 36% 30.45 in 10.0 mi East 6.9 mph - N/A   Clear
3:15 PM 62.2 °F - 36.1 °F 38% 30.44 in 10.0 mi East 11.5 mph - N/A   Clear
3:35 PM 62.4 °F - 36.7 °F 38% 30.44 in 10.0 mi ENE 6.9 mph - N/A   Clear
3:55 PM 62.4 °F - 37.0 °F 39% 30.45 in 10.0 mi East 9.2 mph - N/A   Clear
4:15 PM 61.7 °F - 37.9 °F 41% 30.45 in 10.0 mi NE 10.4 mph - N/A   Clear
4:35 PM 60.8 °F - 37.9 °F 43% 30.44 in 10.0 mi NE 8.1 mph - N/A   Clear
4:55 PM 59.9 °F - 38.3 °F 45% 30.44 in 10.0 mi NE 4.6 mph - N/A   Clear
5:15 PM 58.3 °F - 38.3 °F 47% 30.44 in 10.0 mi NE 5.8 mph - N/A   Clear
5:35 PM 55.6 °F - 39.7 °F 55% 30.45 in 10.0 mi NE 3.5 mph - N/A   Clear
5:55 PM 52.5 °F - 40.8 °F 64% 30.45 in 10.0 mi NE 4.6 mph - N/A   Clear
6:15 PM 53.4 °F - 39.9 °F 60% 30.45 in 10.0 mi NE 4.6 mph - N/A   Clear
6:35 PM 51.6 °F - 40.1 °F 65% 30.46 in 10.0 mi NE 3.5 mph - N/A   Clear
6:55 PM 49.8 °F - 40.6 °F 71% 30.46 in 10.0 mi Calm Calm - N/A   Clear
7:15 PM 48.2 °F - 41.7 °F 78% 30.46 in 10.0 mi ENE 3.5 mph - N/A   Clear
7:35 PM 49.3 °F - 40.5 °F 72% 30.47 in 10.0 mi ENE 3.5 mph - N/A   Clear
7:55 PM 48.2 °F - 40.6 °F 75% 30.47 in 10.0 mi Calm Calm - N/A   Clear
8:15 PM 45.9 °F - 41.0 °F 83% 30.47 in 10.0 mi Calm Calm - N/A   Clear
8:35 PM 43.9 °F - 41.0 °F 90% 30.48 in 10.0 mi Calm Calm - N/A   Clear
8:55 PM 41.9 °F - 40.5 °F 95% 30.48 in 10.0 mi Calm Calm - N/A   Clear
9:15 PM 41.7 °F - 39.7 °F 93% 30.48 in 10.0 mi Calm Calm - N/A   Clear
9:35 PM 42.4 °F 40.7 °F 39.7 °F 90% 30.49 in 10.0 mi East 3.5 mph - N/A   Clear
9:55 PM 41.4 °F - 39.6 °F 93% 30.49 in 10.0 mi Calm Calm - N/A   Clear
10:15 PM 40.3 °F - 39.4 °F 97% 30.49 in 10.0 mi Calm Calm - N/A   Clear
10:35 PM 40.3 °F 38.2 °F 39.6 °F 97% 30.49 in 10.0 mi East 3.5 mph - N/A   Clear
10:55 PM 39.4 °F 37.2 °F 39.0 °F 99% 30.49 in 10.0 mi NE 3.5 mph - N/A   Clear
11:15 PM 43.5 °F 41.9 °F 39.7 °F 87% 30.49 in 10.0 mi ENE 3.5 mph - N/A   Clear
11:35 PM 42.1 °F 39.2 °F 39.4 °F 90% 30.49 in 10.0 mi ENE 4.6 mph - N/A   Clear
11:55 PM 44.6 °F 41.4 °F 38.8 °F 80% 30.50 in 10.0 mi ENE 5.8 mph - N/A   Clear